Home   Weather   Saanich   Past weeks

Flag for Canada Past Weather in Saanich, British Columbia, Canada — Yesterday and Last 2 Weeks

Now
61 °F

Broken clouds.


Feels Like: 61 °F
Forecast: 54 / 65 °F
Wind: 6 mph from Southeast

Location: Victoria Int. Airportb. C.

Current Time: Aug 20, 2017 at 10:30:01 am

Latest Report: Aug 20, 2017 at 10:00 am


Visibility: 30 mi

Pressure: 30.15 "Hg

Humidity: 72%

Dew Point: 52 °F

Location of SaanichLocation

Past Weather in Saanich — Graph

°F

Saanich Temperature Yesterday

Maximum temperature yesterday: 70 °F (at 4:00 pm)
Minimum temperature yesterday: 54 °F (at 3:00 am)
Average temperature yesterday: 62 °F

High & Low Weather Summary for the Past Weeks

 TemperatureHumidityPressure
High77 °F (Aug 18, 5:00 pm)100% (Aug 6, 5:00 am)30.21 "Hg (Aug 6, 5:00 am)
Low52 °F (Aug 15, 6:00 am)43% (Aug 13, 7:00 pm)29.84 "Hg (Aug 11, 7:00 pm)
Average63 °F76%29.99 "Hg
* Reported Aug 5 9:00 am — Aug 20 9:00 am, Saanich. Weather by CustomWeather, © 2017

Note: Actual official high and low records may vary slightly from our data, if they occured in-between our weather recording intervals... More about our weather records

Advertising

Saanich Weather History for the Previous 24 Hours

Scroll right to see more
 ConditionsComfort  
Time TempWeatherWind HumidityBarometerVisibility
9:00 am
Sun, Aug 20
59 °FBroken clouds.3 mph77%30.15 "Hg30 mi
8:00 am59 °FPartly sunny.No wind77%30.14 "Hg30 mi
7:00 am54 °FPartly sunny.No wind94%30.14 "Hg30 mi
6:00 am52 °FPassing clouds.No wind94%30.14 "Hg30 mi
5:00 am54 °FPassing clouds.No wind88%30.14 "Hg30 mi
4:00 am54 °FClear.3 mph88%30.14 "Hg30 mi
3:00 am54 °FPassing clouds.No wind88%30.14 "Hg30 mi
2:00 am55 °FPassing clouds.No wind82%30.14 "Hg30 mi
1:00 am54 °FPassing clouds.3 mph88%30.15 "Hg30 mi
12:00 am55 °FPassing clouds.3 mph88%30.15 "Hg30 mi
11:00 pm
Sat, Aug 19
57 °FClear.2 mph82%30.14 "Hg30 mi
10:00 pm57 °FClear.No wind77%30.15 "Hg30 mi
9:00 pm57 °FPassing clouds.2 mph77%30.15 "Hg30 mi
8:00 pm59 °FScattered clouds.5 mph77%30.14 "Hg30 mi
7:00 pm64 °FScattered clouds.9 mph64%30.14 "Hg30 mi
6:00 pm66 °FPartly sunny.10 mph56%30.15 "Hg30 mi
5:00 pm68 °FPartly sunny.12 mph53%30.16 "Hg30 mi
4:00 pm70 °FPartly sunny.9 mph50%30.17 "Hg30 mi
3:00 pm68 °FPartly sunny.13 mph53%30.19 "Hg30 mi
2:00 pm68 °FPartly sunny.10 mph56%30.20 "Hg30 mi
1:00 pm68 °FPartly sunny.10 mph53%30.20 "Hg30 mi
12:00 pm66 °FScattered clouds.9 mph56%30.21 "Hg30 mi
11:00 am66 °FPassing clouds.7 mph56%30.21 "Hg30 mi
10:00 am63 °FPassing clouds.7 mph68%30.20 "Hg30 mi
Weather by CustomWeather, © 2017

See weather overviewHow to use our weather pages